Location: Fours
(44.3167°N, 6.7000°E)
Time: 18:30:39
(UTC+00:00)

Cosmos 1933 Rocket - Pass Details

Date: 30 November 2020
Orbit: 605 x 631 km, 82.5° (Epoch: 23 January)

Event Time Altitude Azimuth Distance (km) Brightness Sun altitude
Rises 17:19:56 0° 355° (N) 2,935 6.9 -14.7°
Reaches altitude 10° 17:22:14 10° 0° (N) 2,022 6.0 -15.1°
Maximum altitude 17:26:38 54° 78° (ENE) 769 3.6 -15.8°
Drops below altitude 10° 17:30:59 10° 157° (SSE) 2,000 6.1 -16.6°
Sets 17:33:15 0° 161° (SSE) 2,899 7.0 -17.0°
